[[{"header":{"parameterUnit":"m.s-1","parameterCategory":1,"la1":30.2991,"la2":30.254,"lo1":-89.0895,"lo2":-89.0444,"dy":0.0017,"dx":0.0017,"nx":28,"ny":28,"refTime":"2025-04-16T21:00:00:Z","depth":0,"parameterNumber":2,"parameterNumberName":"U-component_of_WINDS"},"data":[0,0,0,0,0,0,0,0,0,0,0,0,0,0,0,0,0,0,0,0,0,0,0,0,0,0,0,0,0,0,0,0,0,0,0,0,0,0,0,0,0,0,0,0,0,0,0,0,0,0,0,0,0,0,0,0,0,0,-2.3331,-2.3332,0,-2.3436,-2.3438,-2.3439,-2.347,-2.3469,-2.3469,-2.3468,-2.3578,-2.3582,-2.3585,0,0,0,0,0,0,0,0,0,0,0,0,0,-2.316,-2.3163,-2.3331,-2.3332,-2.3334,-2.3436,-2.3438,-2.3439,-2.347,-2.3469,-2.3469,-2.3468,-2.3577,-2.3581,-2.3585,0,0,0,0,0,0,0,0,0,0,0,0,0,-2.3247,-2.3164,-2.3331,-2.3361,-2.3365,-2.3436,-2.3438,-2.344,-2.347,-2.3469,-2.3468,-2.3468,-2.3576,-2.3581,-2.3586,-2.3635,0,0,-2.3602,-2.3604,0,0,0,0,0,0,0,0,-2.3242,-2.3253,-2.3356,-2.3359,-2.3364,-2.3439,-2.3418,-2.3505,-2.347,-2.343,-2.3468,-2.3467,-2.3533,-2.3541,-2.3563,-2.364,-2.3645,-2.3602,-2.3605,-2.3608,-2.3609,0,0,0,0,0,0,0,-2.3236,-2.3249,-2.3373,-2.3357,-2.3362,-2.3371,-2.3382,-2.3435,-2.3485,-2.3434,-2.3436,-2.3448,-2.3535,-2.3558,-2.3566,-2.3646,-2.3602,-2.3607,-2.361,-2.3612,-2.377,-2.3771,0,0,0,0,0,0,-2.3224,-2.3244,-2.337,-2.3376,-2.3299,-2.3375,-2.3387,-2.3416,-2.3485,-2.3494,-2.3449,-2.3449,-2.355,-2.356,-2.357,-2.3632,-2.3608,-2.3612,-2.3615,-2.3769,-2.377,-2.3771,0,0,0,0,0,0,-2.3221,-2.3235,-2.3365,-2.3311,-2.3328,-2.3379,-2.341,-2.3418,-2.3441,-2.3496,-2.3505,-2.3463,-2.3549,-2.3563,-2.3619,-2.3636,-2.3615,-2.3619,-2.3767,-2.3769,-2.3771,-2.3756,0,0,0,0,0,0,-2.3215,-2.3234,-2.3252,-2.3311,-2.3331,-2.3411,-2.3411,-2.3421,-2.345,-2.3452,-2.3512,-2.3521,-2.355,-2.3611,-2.3624,-2.3643,-2.3623,-2.3766,-2.3768,-2.377,-2.3755,-2.3757,-2.3759,0,0,0,0,0,-2.3209,-2.3244,-2.3252,-2.3267,-2.3354,-2.3412,-2.3423,-2.3455,-2.3451,-2.3471,-2.3506,-2.3519,-2.3632,-2.3616,-2.3631,-2.3652,-2.3765,-2.3768,-2.377,-2.3754,-2.3757,-2.3759,0,0,0,0,0,0,-2.3186,-2.3252,-2.3262,-2.3317,-2.3358,-2.3417,-2.3442,-2.3456,-2.3501,-2.35,-2.3539,-2.3552,-2.3606,-2.3635,-2.3615,-2.3704,-2.3699,-2.3705,-2.3682,-2.3685,-2.3687,-2.3678,-2.3628,0,0,0,0,0,-2.3187,-2.3228,-2.3284,-2.3326,-2.3347,-2.3391,-2.3417,-2.3438,-2.3483,-2.3501,-2.354,-2.3584,-2.363,-2.3659,-2.3704,-2.376,-2.3774,-2.3782,-2.3784,-2.3785,-2.3789,-2.3822,-2.3826,-2.3779,-2.3779,-2.3779,0,0,-2.319,-2.3231,-2.3255,-2.3323,-2.3357,-2.34,-2.3405,-2.3449,-2.3481,-2.3508,-2.3563,-2.3594,-2.3645,-2.3701,-2.3728,-2.3727,-2.3805,-2.3788,-2.3789,-2.3792,-2.3825,-2.3829,-2.3833,-2.3781,-2.3781,-2.378,0,0,-2.3217,-2.3252,-2.3292,-2.3326,-2.3379,-2.3408,-2.3418,-2.3474,-2.3495,-2.3551,-2.3572,-2.3612,-2.3689,-2.3726,-2.3754,-2.3796,-2.381,-2.381,-2.3819,-2.385,-2.3853,-2.3857,-2.3872,-2.3877,-2.3814,-2.3814,-2.3814,0,-2.3214,-2.3277,-2.331,-2.3354,-2.3383,-2.3409,-2.3451,-2.3483,-2.3548,-2.3568,-2.3567,-2.3665,-2.3702,-2.3767,-2.3777,-2.38,-2.3813,-2.3803,-2.385,-2.3854,-2.3858,-2.3873,-2.3878,-2.3814,-2.3814,-2.3814,-2.3814,0,-2.3272,-2.3315,-2.3341,-2.3402,-2.3435,-2.3477,-2.3518,-2.3548,-2.3566,-2.3596,-2.3653,-2.3698,-2.3753,-2.3771,-2.379,-2.3839,-2.3837,-2.3842,-2.3838,-2.3861,-2.3876,-2.3882,-2.3813,-2.3813,-2.3813,-2.3813,0,0,-2.3286,-2.3365,-2.3374,-2.3403,-2.3463,-2.3498,-2.3542,-2.3595,-2.362,-2.3664,-2.3703,-2.3768,-2.3774,-2.3806,-2.383,-2.3857,-2.3888,-2.3859,-2.3861,-2.3863,-2.3946,-2.3942,-2.3948,-2.3898,-2.3899,-2.39,-2.3942,0,-2.332,-2.3398,-2.343,-2.3493,-2.3535,-2.3561,-2.3599,-2.3641,-2.3671,-2.3711,-2.3744,-2.379,-2.3794,-2.3814,-2.3842,-2.3878,-2.3905,-2.3876,-2.3935,-2.3936,-2.392,-2.3955,-2.3951,-2.3988,-2.3948,-2.3949,-2.395,0,-2.3371,-2.3414,-2.3482,-2.3538,-2.3556,-2.359,-2.3642,-2.368,-2.3728,-2.3748,-2.3785,-2.3807,-2.3855,-2.3849,-2.3917,-2.3896,-2.3922,-2.3944,-2.3946,-2.3952,-2.3944,-2.3963,-2.4,-2.4005,-2.3959,-2.3958,-2.3958,0,-2.3374,-2.3451,-2.3501,-2.3524,-2.3591,-2.3614,-2.3643,-2.3691,-2.3721,-2.3767,-2.3787,-2.3838,-2.3866,-2.3906,-2.3942,-2.3934,-2.4006,-2.4003,-2.4025,-2.4024,-2.4038,-2.4037,-2.408,-2.4056,-2.4056,-2.4055,-2.4055,0,-2.3409,-2.345,-2.3503,-2.3534,-2.3581,-2.3617,-2.3663,-2.3694,-2.3736,-2.3775,-2.3801,-2.3837,-2.3882,-2.3924,-2.3953,-2.4005,-2.4017,-2.4035,-2.4042,-2.4033,-2.403,-2.405,-2.4048,-2.4057,-2.4057,-2.4056,-2.4056,0,-2.3421,-2.3458,-2.3515,-2.3573,-2.3589,-2.3621,-2.3672,-2.3703,-2.3734,-2.3783,-2.3796,-2.3845,-2.3896,-2.3936,-2.4003,-2.4022,-2.4077,-2.4085,-2.406,-2.4063,-2.4083,-2.4081,-2.4141,-2.415,-2.4119,-2.4119,-2.412,0,-2.344,-2.3472,-2.3534,-2.3561,-2.3589,-2.3633,-2.3664,-2.3702,-2.3733,-2.3791,-2.3816,-2.3869,-2.3913,-2.3993,-2.4035,-2.4087,-2.4096,-2.4113,-2.4104,-2.4093,-2.4096,-2.4094,-2.4097,-2.4114,-2.4114,-2.4115,-2.4115,0,-2.3471,-2.3489,-2.3531,-2.3581,-2.3617,-2.3658,-2.3701,-2.3722,-2.3768,-2.3802,-2.3854,-2.3888,-2.3955,-2.4008,-2.4063,-2.4095,-2.4113,-2.4118,-2.4125,-2.4116,-2.41,-2.4109,-2.4063,-2.4116,-2.4116,-2.4116,-2.4116,-2.4116,-2.3488,-2.3517,-2.3565,-2.3613,-2.3648,-2.3687,-2.372,-2.3755,-2.3798,-2.3856,-2.3876,-2.3929,-2.3979,-2.4055,-2.4087,-2.4131,-2.4132,-2.4143,-2.4146,-2.4148,-2.4147,-2.4093,-2.4141,-2.4141,-2.4141,-2.4141,-2.4141,0,-2.352,-2.3553,-2.3596,-2.3653,-2.3691,-2.3704,-2.3751,-2.3782,-2.3828,-2.3872,-2.3915,-2.3975,-2.4026,-2.4073,-2.4126,-2.4152,-2.4162,-2.4165,-2.4163,-2.417,-2.4143,-2.4131,-2.4156,-2.4156,-2.4156,-2.4156,-2.4156,-2.4156,-2.3542,-2.3592,-2.3615,-2.3684,-2.3717,-2.3768,-2.3794,-2.3831,-2.3866,-2.3932,-2.3974,-2.4003,-2.4049,-2.4106,-2.4154,-2.4167,-2.4185,-2.4186,-2.4201,-2.4174,-2.4172,-2.417,-2.4159,-2.419,-2.419,-2.4224,-2.4225,-2.4225]},{"header":{"parameterUnit":"m.s-1","parameterCategory":1,"la1":30.2991,"la2":30.254,"lo1":-89.0895,"lo2":-89.0444,"dy":0.0017,"dx":0.0017,"nx":28,"ny":28,"refTime":"2025-04-16T21:00:00:Z","depth":0,"parameterNumber":3,"parameterNumberName":"V-component_of_WINDS"},"data":[0,0,0,0,0,0,0,0,0,0,0,0,0,0,0,0,0,0,0,0,0,0,0,0,0,0,0,0,0,0,0,0,0,0,0,0,0,0,0,0,0,0,0,0,0,0,0,0,0,0,0,0,0,0,0,0,0,0,6.1271,6.1271,0,6.1291,6.1292,6.1292,6.1215,6.1213,6.1211,6.1209,6.1229,6.1231,6.1234,0,0,0,0,0,0,0,0,0,0,0,0,0,6.1162,6.1165,6.1271,6.1271,6.1271,6.1291,6.1292,6.1292,6.1216,6.1213,6.121,6.1208,6.1228,6.1231,6.1234,0,0,0,0,0,0,0,0,0,0,0,0,0,6.1199,6.1166,6.1271,6.1236,6.1233,6.1291,6.1292,6.1292,6.1216,6.1213,6.121,6.1206,6.1227,6.1231,6.1234,6.1327,0,0,6.1247,6.1248,0,0,0,0,0,0,0,0,6.1197,6.1203,6.1241,6.1238,6.1235,6.1247,6.1261,6.1304,6.1217,6.1223,6.1209,6.1205,6.1238,6.124,6.1252,6.1328,6.1329,6.1247,6.1249,6.1251,6.1252,0,0,0,0,0,0,0,6.1195,6.1202,6.1279,6.1241,6.1238,6.1218,6.122,6.1269,6.1249,6.1222,6.1216,6.122,6.1235,6.1248,6.1252,6.1329,6.1247,6.125,6.1253,6.1254,6.1482,6.1485,0,0,0,0,0,0,6.1197,6.12,6.1278,6.1279,6.1207,6.1223,6.1224,6.1247,6.1248,6.1245,6.1223,6.1216,6.1243,6.1247,6.1252,6.136,6.1251,6.1255,6.1257,6.1478,6.1482,6.1486,0,0,0,0,0,0,6.1195,6.1205,6.1277,6.1238,6.1246,6.1228,6.1254,6.1249,6.1262,6.1249,6.1245,6.124,6.124,6.1246,6.1309,6.136,6.1257,6.126,6.1474,6.1479,6.1484,6.1578,0,0,0,0,0,0,6.1192,6.1204,6.124,6.124,6.1248,6.1335,6.1257,6.1252,6.1269,6.1261,6.1264,6.1261,6.1238,6.1303,6.1313,6.1363,6.1263,6.1469,6.1476,6.1483,6.157,6.1586,6.16,0,0,0,0,0,6.1189,6.1266,6.1242,6.1252,6.1293,6.1338,6.1343,6.1316,6.1273,6.1309,6.13,6.1261,6.1353,6.1311,6.132,6.1373,6.1466,6.1474,6.1482,6.1564,6.1583,6.1599,0,0,0,0,0,0,6.1272,6.1265,6.1239,6.1318,6.133,6.1325,6.1369,6.1337,6.136,6.1351,6.1316,6.1317,6.1386,6.1385,6.1339,6.1462,6.1402,6.1412,6.146,6.1479,6.1493,6.1492,6.1267,0,0,0,0,0,6.13,6.1338,6.1329,6.14,6.1407,6.1387,6.1406,6.1384,6.1394,6.1398,6.1394,6.1405,6.1435,6.1457,6.1485,6.157,6.1569,6.1611,6.1625,6.1637,6.1647,6.1691,6.1709,6.1513,6.1513,6.1513,0,0,6.1358,6.1358,6.1384,6.1417,6.1423,6.1462,6.1392,6.1436,6.1465,6.1404,6.1463,6.1461,6.147,6.1544,6.1577,6.1546,6.1701,6.1648,6.1657,6.1661,6.1701,6.172,6.1737,6.1519,6.1518,6.1517,0,0,6.1483,6.1487,6.1546,6.1554,6.1564,6.155,6.1564,6.1565,6.1561,6.1619,6.1575,6.1607,6.1662,6.167,6.1682,6.1809,6.1773,6.1819,6.1895,6.1939,6.1954,6.1968,6.2013,6.203,6.1829,6.1829,6.1829,0,6.1553,6.1611,6.1581,6.1629,6.1644,6.1591,6.165,6.1658,6.1677,6.1688,6.1654,6.172,6.1723,6.1798,6.1829,6.184,6.1855,6.1819,6.1955,6.1968,6.198,6.2023,6.204,6.1834,6.1834,6.1833,6.1833,0,6.1697,6.1738,6.1784,6.1804,6.1824,6.1878,6.1854,6.1878,6.1854,6.1844,6.1904,6.1905,6.1932,6.1948,6.1925,6.2019,6.2,6.1961,6.1899,6.2005,6.2044,6.2061,6.1842,6.184,6.1839,6.1837,0,0,6.1877,6.1878,6.1896,6.1904,6.191,6.1941,6.1991,6.2018,6.2039,6.2053,6.2094,6.2141,6.2104,6.2117,6.2094,6.2133,6.2233,6.2088,6.2088,6.2115,6.2337,6.2367,6.2386,6.2209,6.2212,6.2214,6.2336,0,6.2,6.2087,6.206,6.2147,6.2184,6.2134,6.2177,6.2186,6.2177,6.2206,6.2196,6.223,6.2179,6.2187,6.2222,6.2213,6.2277,6.2204,6.2246,6.2248,6.2246,6.2407,6.2439,6.2554,6.2351,6.2354,6.2356,0,6.2155,6.2176,6.2267,6.2267,6.2281,6.2321,6.2343,6.2372,6.238,6.237,6.2385,6.2354,6.2402,6.234,6.2406,6.2357,6.2372,6.2371,6.2374,6.2378,6.2309,6.2415,6.259,6.2608,6.238,6.2378,6.2376,0,6.2278,6.2328,6.2388,6.2397,6.2398,6.2427,6.2428,6.2433,6.245,6.2469,6.248,6.2504,6.2517,6.2536,6.2512,6.2469,6.2582,6.2518,6.2575,6.2576,6.2602,6.2601,6.2782,6.2611,6.2611,6.2611,6.2611,0,6.2418,6.2476,6.2443,6.2481,6.2544,6.2512,6.2574,6.257,6.2574,6.261,6.2567,6.2601,6.2567,6.2597,6.2578,6.2636,6.2642,6.2636,6.263,6.264,6.2641,6.265,6.2642,6.2615,6.2614,6.2614,6.2613,0,6.2566,6.2546,6.2609,6.2605,6.2605,6.2651,6.2647,6.2681,6.2669,6.2714,6.2722,6.2703,6.2737,6.2714,6.2748,6.2735,6.281,6.2794,6.2808,6.2804,6.2863,6.2858,6.3057,6.3081,6.2895,6.2896,6.2898,0,6.2657,6.27,6.27,6.2721,6.2725,6.2759,6.2777,6.2746,6.2766,6.2778,6.281,6.284,6.2862,6.2918,6.2907,6.2932,6.2916,6.2984,6.2919,6.2928,6.2917,6.2915,6.2919,6.2997,6.3,6.3001,6.3003,0,6.2821,6.2809,6.2836,6.286,6.2882,6.2899,6.2913,6.2932,6.2901,6.2926,6.2959,6.2977,6.3011,6.3041,6.3062,6.3062,6.3028,6.3023,6.3038,6.3048,6.3055,6.3052,6.2844,6.3019,6.3017,6.3016,6.3015,6.3014,6.2944,6.2979,6.2985,6.3016,6.3023,6.3036,6.3068,6.306,6.3087,6.3113,6.3093,6.3133,6.3139,6.3163,6.3168,6.3199,6.3171,6.3192,6.3198,6.3204,6.3212,6.305,6.3202,6.3202,6.3201,6.3201,6.3201,0,6.3106,6.3106,6.3136,6.3156,6.318,6.3145,6.3158,6.3181,6.3217,6.3225,6.3248,6.3286,6.3315,6.3306,6.3331,6.3357,6.3342,6.3365,6.3363,6.3364,6.3235,6.322,6.3377,6.3377,6.3377,6.3377,6.3377,6.3377,6.3193,6.3252,6.324,6.3301,6.3301,6.3341,6.3351,6.3363,6.3369,6.3414,6.3438,6.3431,6.3432,6.3457,6.3482,6.3478,6.3489,6.3519,6.3509,6.339,6.3373,6.3356,6.3342,6.3521,6.3521,6.3635,6.3636,6.3637]}]]